Time,TemperatureF,DewpointF,PressureIn,WindDirection,WindDirectionDegrees,WindSpeedMPH,WindSpeedGustMPH,Humidity,HourlyPrecipIn,Conditions,Clouds,dailyrainin,SoftwareType,DateUTC
2013-01-23 00:15:00,21.9,6.0,30.48,ENE,77,1.0,1.0,51,0.00,,,0.00,weatherlink.com 1.10,2013-01-23 05:15:00,
2013-01-23 00:30:00,22.0,7.0,30.48,SE,144,0.0,1.0,52,0.00,,,0.00,weatherlink.com 1.10,2013-01-23 05:30:00,
2013-01-23 00:45:00,22.0,7.0,30.49,SE,146,0.0,0.0,53,0.00,,,0.00,weatherlink.com 1.10,2013-01-23 05:45:00,
2013-01-23 01:00:00,22.2,7.0,30.49,SE,131,1.0,3.0,53,0.00,,,0.00,weatherlink.com 1.10,2013-01-23 06:00:00,
2013-01-23 01:15:00,22.4,8.0,30.49,SW,218,1.0,4.0,55,0.00,,,0.00,weatherlink.com 1.10,2013-01-23 06:15:00,
2013-01-23 01:30:00,22.9,10.0,30.49,WNW,284,1.0,4.0,57,0.00,,,0.00,weatherlink.com 1.10,2013-01-23 06:30:00,
2013-01-23 01:45:00,23.2,11.0,30.50,NNE,29,0.0,5.0,59,0.00,,,0.00,weatherlink.com 1.10,2013-01-23 06:45:00,
2013-01-23 02:00:00,23.9,11.0,30.50,WNW,294,1.0,4.0,57,0.00,,,0.00,weatherlink.com 1.10,2013-01-23 07:00:00,
2013-01-23 02:15:00,24.2,11.0,30.49,NW,312,0.0,5.0,57,0.00,,,0.00,weatherlink.com 1.10,2013-01-23 07:15:00,
2013-01-23 02:30:00,23.3,10.0,30.49,East,90,0.0,0.0,56,0.00,,,0.00,weatherlink.com 1.10,2013-01-23 07:30:00,
2013-01-23 02:45:00,23.0,10.0,30.50,NNE,27,2.0,2.0,58,0.00,,,0.00,weatherlink.com 1.10,2013-01-23 07:45:00,
2013-01-23 03:00:00,23.2,10.0,30.50,ESE,117,0.0,2.0,58,0.00,,,0.00,weatherlink.com 1.10,2013-01-23 08:00:00,
2013-01-23 03:15:00,23.3,11.0,30.50,WNW,294,0.0,3.0,60,0.00,,,0.00,weatherlink.com 1.10,2013-01-23 08:15:00,
2013-01-23 03:30:00,23.2,11.0,30.50,South,183,0.0,2.0,60,0.00,,,0.00,weatherlink.com 1.10,2013-01-23 08:30:00,
2013-01-23 03:45:00,22.9,10.0,30.50,NNE,33,2.0,2.0,59,0.00,,,0.00,weatherlink.com 1.10,2013-01-23 08:45:00,
2013-01-23 04:00:00,23.0,10.0,30.50,East,79,0.0,1.0,59,0.00,,,0.00,weatherlink.com 1.10,2013-01-23 09:00:00,
2013-01-23 04:15:00,23.1,11.0,30.50,East,98,1.0,2.0,61,0.00,,,0.00,weatherlink.com 1.10,2013-01-23 09:15:00,
2013-01-23 04:30:00,23.1,11.0,30.50,SSE,152,0.0,2.0,60,0.00,,,0.00,weatherlink.com 1.10,2013-01-23 09:30:00,
2013-01-23 04:45:00,23.0,11.0,30.50,SSW,198,1.0,2.0,61,0.00,,,0.00,weatherlink.com 1.10,2013-01-23 09:45:00,
2013-01-23 05:00:00,23.2,13.0,30.49,SSE,155,0.0,3.0,65,0.00,,,0.00,weatherlink.com 1.10,2013-01-23 10:00:00,
2013-01-23 05:30:00,23.1,13.0,30.49,South,181,2.0,3.0,66,0.00,,,0.00,weatherlink.com 1.10,2013-01-23 10:30:00,
2013-01-23 05:45:00,23.1,14.0,30.50,South,188,0.0,2.0,69,0.00,,,0.00,weatherlink.com 1.10,2013-01-23 10:45:00,
2013-01-23 06:00:00,23.7,15.0,30.50,SSE,149,3.0,4.0,70,0.00,,,0.00,weatherlink.com 1.10,2013-01-23 11:00:00,
2013-01-23 06:15:00,24.8,16.0,30.51,SW,233,1.0,3.0,69,0.00,,,0.00,weatherlink.com 1.10,2013-01-23 11:15:00,
2013-01-23 06:30:00,25.2,16.0,30.51,SSE,162,0.0,4.0,68,0.00,,,0.00,weatherlink.com 1.10,2013-01-23 11:30:00,
2013-01-23 06:45:00,25.3,16.0,30.51,SW,233,0.0,3.0,68,0.00,,,0.00,weatherlink.com 1.10,2013-01-23 11:45:00,
2013-01-23 07:00:00,25.0,16.0,30.51,SW,225,1.0,4.0,68,0.00,,,0.00,weatherlink.com 1.10,2013-01-23 12:00:00,
2013-01-23 07:16:00,24.9,15.0,30.52,SSW,211,0.0,4.0,65,0.00,,,0.00,weatherlink.com 1.10,2013-01-23 12:16:00,
2013-01-23 07:31:00,25.3,15.0,30.53,SE,146,0.0,3.0,64,0.00,,,0.00,weatherlink.com 1.10,2013-01-23 12:31:00,
2013-01-23 07:46:00,25.7,16.0,30.53,SSW,207,1.0,3.0,66,0.00,,,0.00,weatherlink.com 1.10,2013-01-23 12:46:00,
2013-01-23 08:01:00,26.1,16.0,30.53,West,280,1.0,5.0,65,0.00,,,0.00,weatherlink.com 1.10,2013-01-23 13:01:00,
2013-01-23 08:16:00,26.3,16.0,30.53,NW,310,2.0,5.0,66,0.00,,,0.00,weatherlink.com 1.10,2013-01-23 13:16:00,
2013-01-23 08:31:00,26.7,16.0,30.53,NNE,27,4.0,5.0,65,0.00,,,0.00,weatherlink.com 1.10,2013-01-23 13:31:00,
2013-01-23 08:46:00,27.1,18.0,30.53,NW,319,2.0,5.0,68,0.00,,,0.00,weatherlink.com 1.10,2013-01-23 13:46:00,
2013-01-23 09:16:00,27.6,19.0,30.54,SW,224,4.0,7.0,70,0.00,,,0.00,weatherlink.com 1.10,2013-01-23 14:16:00,
2013-01-23 09:31:00,27.5,19.0,30.54,NNW,347,1.0,6.0,71,0.00,,,0.00,weatherlink.com 1.10,2013-01-23 14:31:00,
2013-01-23 09:46:00,27.7,20.0,30.55,NW,326,2.0,7.0,72,0.00,,,0.00,weatherlink.com 1.10,2013-01-23 14:46:00,
2013-01-23 10:01:00,28.5,21.0,30.55,ESE,120,1.0,4.0,72,0.00,,,0.00,weatherlink.com 1.10,2013-01-23 15:01:00,
2013-01-23 10:16:00,30.0,21.0,30.55,WNW,284,0.0,6.0,70,0.00,,,0.00,weatherlink.com 1.10,2013-01-23 15:16:00,
2013-01-23 10:31:00,30.4,21.0,30.56,NW,326,3.0,7.0,69,0.00,,,0.00,weatherlink.com 1.10,2013-01-23 15:31:00,
2013-01-23 10:46:00,31.1,22.0,30.56,SSW,211,4.0,8.0,68,0.00,,,0.00,weatherlink.com 1.10,2013-01-23 15:46:00,
2013-01-23 11:01:00,32.1,22.0,30.55,SE,143,2.0,7.0,67,0.00,,,0.00,weatherlink.com 1.10,2013-01-23 16:01:00,
2013-01-23 11:16:00,33.0,22.0,30.55,NNW,343,8.0,10.0,65,0.00,,,0.00,weatherlink.com 1.10,2013-01-23 16:16:00,
2013-01-23 11:31:00,33.9,23.0,30.54,WSW,246,8.0,9.0,64,0.00,,,0.00,weatherlink.com 1.10,2013-01-23 16:31:00,
2013-01-23 12:01:00,34.7,24.0,30.53,West,274,2.0,7.0,65,0.00,,,0.00,weatherlink.com 1.10,2013-01-23 17:01:00,
2013-01-23 12:16:00,34.5,24.0,30.52,NW,308,4.0,11.0,65,0.00,,,0.00,weatherlink.com 1.10,2013-01-23 17:16:00,
2013-01-23 12:31:00,35.1,24.0,30.50,NW,306,3.0,8.0,63,0.00,,,0.00,weatherlink.com 1.10,2013-01-23 17:31:00,
2013-01-23 12:46:00,35.6,24.0,30.49,NNE,12,5.0,7.0,63,0.00,,,0.00,weatherlink.com 1.10,2013-01-23 17:46:00,
2013-01-23 13:01:00,36.5,24.0,30.48,NW,304,3.0,6.0,60,0.00,,,0.00,weatherlink.com 1.10,2013-01-23 18:01:00,
2013-01-23 13:16:00,37.1,24.0,30.46,WNW,285,0.0,4.0,60,0.00,,,0.00,weatherlink.com 1.10,2013-01-23 18:16:00,
2013-01-23 13:31:00,37.9,24.0,30.45,SSE,166,0.0,7.0,57,0.00,,,0.00,weatherlink.com 1.10,2013-01-23 18:31:00,
2013-01-23 13:47:00,38.2,24.0,30.45,WNW,298,2.0,6.0,56,0.00,,,0.00,weatherlink.com 1.10,2013-01-23 18:47:00,
2013-01-23 14:02:00,38.6,24.0,30.44,NW,309,4.0,6.0,57,0.00,,,0.00,weatherlink.com 1.10,2013-01-23 19:02:00,
2013-01-23 14:17:00,38.7,24.0,30.44,WNW,292,4.0,8.0,55,0.00,,,0.00,weatherlink.com 1.10,2013-01-23 19:17:00,
2013-01-23 14:32:00,39.0,24.0,30.43,NW,304,1.0,9.0,56,0.00,,,0.00,weatherlink.com 1.10,2013-01-23 19:32:00,
2013-01-23 14:47:00,39.2,24.0,30.43,NE,47,4.0,6.0,55,0.00,,,0.00,weatherlink.com 1.10,2013-01-23 19:47:00,
2013-01-23 15:02:00,39.7,24.0,30.43,SSE,156,0.0,6.0,54,0.00,,,0.00,weatherlink.com 1.10,2013-01-23 20:02:00,
2013-01-23 15:17:00,40.2,24.0,30.42,NNW,335,0.0,4.0,53,0.00,,,0.00,weatherlink.com 1.10,2013-01-23 20:17:00,
2013-01-23 15:32:00,40.1,24.0,30.41,SE,146,1.0,4.0,54,0.00,,,0.00,weatherlink.com 1.10,2013-01-23 20:32:00,
2013-01-23 15:47:00,40.3,24.0,30.40,ESE,110,0.0,4.0,53,0.00,,,0.00,weatherlink.com 1.10,2013-01-23 20:47:00,
2013-01-23 16:02:00,40.3,25.0,30.41,WSW,242,0.0,4.0,54,0.00,,,0.00,weatherlink.com 1.10,2013-01-23 21:02:00,
2013-01-23 16:17:00,39.9,24.0,30.41,SSW,208,2.0,3.0,54,0.00,,,0.00,weatherlink.com 1.10,2013-01-23 21:17:00,
2013-01-23 16:32:00,38.9,25.0,30.40,South,188,2.0,3.0,57,0.00,,,0.00,weatherlink.com 1.10,2013-01-23 21:32:00,
2013-01-23 16:47:00,38.8,24.0,30.39,ESE,114,1.0,4.0,56,0.00,,,0.00,weatherlink.com 1.10,2013-01-23 21:47:00,
2013-01-23 17:02:00,39.0,25.0,30.40,SSE,162,3.0,4.0,57,0.00,,,0.00,weatherlink.com 1.10,2013-01-23 22:02:00,
2013-01-23 17:17:00,38.4,24.0,30.40,SSW,205,0.0,4.0,57,0.00,,,0.00,weatherlink.com 1.10,2013-01-23 22:17:00,
2013-01-23 17:32:00,37.4,24.0,30.40,SE,143,1.0,7.0,59,0.00,,,0.00,weatherlink.com 1.10,2013-01-23 22:32:00,
2013-01-23 17:47:00,37.2,24.0,30.40,South,172,3.0,5.0,60,0.00,,,0.00,weatherlink.com 1.10,2013-01-23 22:47:00,
2013-01-23 18:02:00,36.5,24.0,30.40,SSE,160,3.0,4.0,61,0.00,,,0.00,weatherlink.com 1.10,2013-01-23 23:02:00,
2013-01-23 18:17:00,35.9,24.0,30.40,SE,133,1.0,4.0,62,0.00,,,0.00,weatherlink.com 1.10,2013-01-23 23:17:00,
2013-01-23 18:32:00,35.2,24.0,30.40,South,170,1.0,5.0,64,0.00,,,0.00,weatherlink.com 1.10,2013-01-23 23:32:00,
2013-01-23 19:02:00,34.9,23.0,30.40,SSE,163,2.0,3.0,62,0.00,,,0.00,weatherlink.com 1.10,2013-01-24 00:02:00,
2013-01-23 19:17:00,34.5,23.0,30.40,South,172,1.0,5.0,63,0.00,,,0.00,weatherlink.com 1.10,2013-01-24 00:17:00,
2013-01-23 19:32:00,34.5,23.0,30.39,SSE,164,2.0,5.0,63,0.00,,,0.00,weatherlink.com 1.10,2013-01-24 00:32:00,
2013-01-23 19:47:00,34.3,23.0,30.40,SSE,149,1.0,4.0,63,0.00,,,0.00,weatherlink.com 1.10,2013-01-24 00:47:00,
2013-01-23 20:02:00,34.0,23.0,30.39,South,176,3.0,5.0,64,0.00,,,0.00,weatherlink.com 1.10,2013-01-24 01:02:00,
2013-01-23 20:17:00,33.8,23.0,30.39,South,179,3.0,5.0,64,0.00,,,0.00,weatherlink.com 1.10,2013-01-24 01:17:00,
2013-01-23 20:32:00,34.0,24.0,30.39,North,358,0.0,4.0,66,0.00,,,0.00,weatherlink.com 1.10,2013-01-24 01:32:00,
2013-01-23 21:02:00,34.8,25.0,30.39,NW,321,4.0,5.0,67,0.00,,,0.00,weatherlink.com 1.10,2013-01-24 02:02:00,
2013-01-23 21:17:00,34.7,25.0,30.39,South,172,2.0,6.0,68,0.00,,,0.00,weatherlink.com 1.10,2013-01-24 02:17:00,
2013-01-23 21:32:00,34.8,26.0,30.38,SSW,207,1.0,6.0,69,0.00,,,0.00,weatherlink.com 1.10,2013-01-24 02:32:00,
2013-01-23 21:47:00,35.0,26.0,30.37,SW,215,0.0,7.0,70,0.00,,,0.00,weatherlink.com 1.10,2013-01-24 02:47:00,
2013-01-23 22:02:00,34.5,26.0,30.37,SSE,154,0.0,4.0,71,0.00,,,0.00,weatherlink.com 1.10,2013-01-24 03:02:00,
2013-01-23 22:17:00,34.4,27.0,30.37,SE,128,4.0,5.0,73,0.00,,,0.00,weatherlink.com 1.10,2013-01-24 03:17:00,
2013-01-23 22:32:00,33.9,26.0,30.37,SSW,208,2.0,3.0,73,0.00,,,0.00,weatherlink.com 1.10,2013-01-24 03:32:00,
2013-01-23 22:47:00,34.1,27.0,30.36,SSE,156,5.0,7.0,74,0.00,,,0.00,weatherlink.com 1.10,2013-01-24 03:47:00,
2013-01-23 23:02:00,35.1,27.0,30.36,SE,131,1.0,4.0,72,0.00,,,0.00,weatherlink.com 1.10,2013-01-24 04:02:00,
2013-01-23 23:17:00,34.9,27.0,30.35,South,172,3.0,4.0,73,0.00,,,0.00,weatherlink.com 1.10,2013-01-24 04:17:00,
2013-01-23 23:32:00,35.8,28.0,30.35,SSE,162,4.0,4.0,72,0.00,,,0.00,weatherlink.com 1.10,2013-01-24 04:32:00,
2013-01-23 23:47:00,36.0,28.0,30.34,WSW,242,1.0,7.0,72,0.00,,,0.00,weatherlink.com 1.10,2013-01-24 04:47:00,